Weather in Ivankovskiy

Russia / Ivanovo Oblast     56°40′30″N   40°06′35″E
temp.,
°C
wind,
m/s
gust,
m/s
humid.,
%
clouds,
%
prec.,
mm/h
press.,
hPa
HPBL,
m
22 may, sun
sun2200:00+1ne310775 0.0 1009259
03:00−1ne26835 0.0 1009128
06:00+1ne36640 0.0 1007252
09:00+6nne46455 0.0 10061262
12:00+8nne564073 0.0 10051635
15:00+7nne564998 0.0 10061599
18:00+5nne475594 0.0 10061493
21:00+1n257375 0.0 1006116
23 may, mon
mon2300:00−1nw24856 0.0 100672
03:00−2nw388819 0.0 1005196
06:00+1nw4973100 0.0 1005507
09:00+5nw585791 0.0 10031271
12:00+8nw6946100 0.0 10021669
15:00+9nnw61145100 0.0 10021784
18:00+7nnw51150100 0.0 10021469
21:00+4wnw3963100 0.0 1002311
24 may, tue
tue2400:00+4nw51166100 0.0 10011284
03:00+1nw5998100 1.2 1002778
06:00+1nnw489899 0.7 1003513
09:00+2n4685100 0.9 10051009
12:00+3n4673100 0.1 10071179
15:00+5nnw356996 0.3 10081131
18:00+5nnw466787 0.3 1010870
21:00+3nw378398 0.3 1012273
25 may, wed
wed2500:00+3nnw3886100 0.0 1012386
03:00+2nw3793100 0.1 1013279
06:00+3nw36887 0.0 1014283
09:00+8nw4554100 0.0 10141517
12:00+9nw4555100 0.0 10141720
15:00+9nw4558100 0.1 10141198
18:00+9nw355860 0.0 1014825
21:00+5wsw227385 0.0 101412
26 may, thu
thu2600:00+3sw227966 0.0 101318
03:00+4w2379100 0.0 101261
06:00+6w1480100 0.0 1011162
09:00+9wsw126941 0.0 1009540
12:00+13sw1260100 0.1 10071078
15:00+14ese335668 0.1 10051068
18:00+13e3667100 0.0 1002498
21:00+9e4108099 0.0 1001377